Location: Ash Swamp
(41.5170°N, 74.6157°W)
Time: 16:01:31
(UTC+00:00)

Gblst 52 Del rocket - Pass Details

Date: 14 July 2020
Orbit: 805 x 1366 km, 51.5° (Epoch: 04 August)

Event Time Altitude Azimuth Distance (km) Brightness Sun altitude
Rises 01:08:14 0° 304° (NW) 3,325 10.1 -6.5°
Reaches altitude 10° 01:10:38 10° 305° (NW) 2,410 8.4 -6.9°
Maximum altitude 01:16:13 87° 34° (NNE) 864 4.3 -7.7°
Enters shadow 01:22:17 10° 125° (SE) 2,609 6.1 -8.6°
